STARLINK AH (44266 NORAD) Tracking and Keplerian Element Data

This shows tracking and keplerian element data for the satellite.

Feedback or suggestion? Click here.




ElementValue
Catalog44266
NameSTARLINK AH
Epoch Orbit461
Epoch Day174.0289511
Epoch Year2019
RAAN37.1669
Inclination52.9967
Eccentricity0.0002854
Argument of Perigee139.4259
Mean Anonmoly220.6942
Mean Motion15.05498856
Decay Rate1.427E-05
L11 44266U 19029AH 19174.02895110 .00001427 00000-0 11735-3 0 9995
L22 44266 52.9967 37.1669 0002854 139.4259 220.6942 15.05498856 4613

Live tracking and technical data element details for STARLINK AH (NORAD 44266). STARLINK AH can be tracked NOW for your location showing map with azimuth and elevation plus other details from your city location.

Track the satellite on the map from your city or location and see movement details for azimuth, elevation, latitude, longitude, range, height, and movement on the map or in text.







IsCatalogInMostPopularTable: catalog: 44266, numindb: 31
Update: records affected: 1



GetName: 44266 STARLINK AH

Hit Count: updated at: Mon, 22 Jul 2019 04:13:18 GMT